Flag for U.S.A. Weather past 2 weeks in Dickinson, North Dakota, U.S.A.

Now
54 °F

Clear.


Feels Like: 52 °F
Forecast: 40 / 60 °F
Wind: 8 mph from East

Location: Dickinson Municipal Airport

Current Time: Apr 24, 2015 at 9:03:47 PM

Latest Report: Apr 24, 2015 at 7:56 PM


Visibility: 10 mi

Pressure: 29.64 "Hg

Humidity: 45%

Dew point: 33 °F

Location of DickinsonLocation

Historic Weather in Dickinson — Graph

°F

Dickinson temperature yesterday

Maximum temperature yesterday: 59 °F (at 4:56 PM)
Minimum temperature yesterday: 25 °F (at 3:56 AM)
Average temperature yesterday: 44 °F

Past Weeks' High & Low Weather Summary

 TemperatureHumidityPressure
High79 °F (Apr 14, 4:56 PM)86% (Apr 18, 5:56 PM)30.22 "Hg (Apr 18, 5:56 PM)
Low21 °F (Apr 22, 2:56 AM)12% (Apr 14, 4:56 PM)29.45 "Hg (Apr 11, 10:56 PM)
Average46 °F45%29.91 "Hg
* Reported Apr 9 7:56 PM — Apr 24 7:56 PM, Dickinson, Weather by CustomWeather, © 2015

Note: Actual official high and low records may vary slightly from our data, if they occured in-between our weather recording intervals... More about our weather records

Advertising

Dickinson weather history for previous 24 hours

 ConditionsComfort  
Time TempWeatherWind HumidityBarometerVisibility
7:56 PM
Fri, Apr 24
54 °FClear.8 mph45%29.64 "Hg10 mi
6:56 PM63 °FPassing clouds.10 mph31%29.61 "Hg10 mi
4:56 PM68 °FSunny.10 mph27%29.58 "Hg10 mi
3:56 PM68 °FSunny.12 mph27%29.58 "Hg10 mi
2:56 PM67 °FSunny.8 mph30%29.58 "Hg10 mi
1:56 PM65 °FSunny.7 mph31%29.60 "Hg10 mi
12:56 PM63 °FSunny.5 mph35%29.61 "Hg10 mi
11:56 AM60 °FSunny.8 mph38%29.63 "Hg10 mi
10:56 AM55 °FSunny.7 mph40%29.64 "Hg10 mi
9:56 AM49 °FSunny.No wind46%29.65 "Hg10 mi
8:56 AM43 °FSunny.3 mph51%29.65 "Hg10 mi
7:56 AM38 °FSunny.5 mph58%29.67 "Hg10 mi
6:56 AM33 °FSunny.6 mph66%29.66 "Hg10 mi
5:56 AM30 °FSunny.5 mph69%29.65 "Hg10 mi
4:56 AM32 °FClear.3 mph61%29.64 "Hg10 mi
3:56 AM32 °FClear.3 mph64%29.65 "Hg10 mi
2:56 AM36 °FClear.5 mph54%29.65 "Hg10 mi
1:56 AM35 °FClear.5 mph59%29.66 "Hg10 mi
12:56 AM38 °FClear.6 mph55%29.67 "Hg10 mi
11:56 PM
Thu, Apr 23
40 °FClear.7 mph53%29.67 "Hg10 mi
10:56 PM43 °FClear.10 mph49%29.68 "Hg10 mi
9:56 PM46 °FClear.16 mph42%29.69 "Hg10 mi
Weather by CustomWeather, © 2015

See weather overviewHow to use our weather pages